When you browse on this site, cookies collect data to enhance your experience and personalize the content and advertising you see.
Visit our Privacy Policy to learn more. By continuing to use the site, you agree to this use of cookies and data.
  • In France
  • List of Countries
  • For 7 days
  • Water Temperature
  • Satellite Maps
  • Weather Map
  • Weather Widgets
  • user-avatar
    Login

    Hourly Weather Santiago del Estero

    Today, 19 January, Saturday

    Time Temperature Precipitation Wind Pressure Humidity
    00:00 +20°C° 0 mm 2 mps 748 mmHg 77%
    01:00 +19°C° 0 mm 2 mps 748 mmHg 81%
    02:00 +19°C° 0 mm 2 mps 748 mmHg 84%
    03:00 +19°C° 0 mm 1 mps 748 mmHg 86%
    04:00 +19°C° 0 mm 1 mps 748 mmHg 87%
    05:00 +18°C° 0 mm 1 mps 748 mmHg 89%
    06:00 +20°C° 0 mm 1 mps 748 mmHg 84%
    07:00 +21°C° 0 mm 1 mps 748 mmHg 79%
    08:00 +21°C° 0 mm 2 mps 748 mmHg 74%
    09:00 +24°C° 0 mm 2 mps 748 mmHg 68%
    10:00 +25°C° 0 mm 2 mps 748 mmHg 63%
    11:00 +26°C° 0 mm 2 mps 748 mmHg 58%
    12:00 +27°C° 0 mm 2 mps 747 mmHg 53%
    13:00 +28°C° 0 mm 2 mps 747 mmHg 49%
    14:00 +29°C° 0 mm 2 mps 746 mmHg 44%
    15:00 +30°C° 0 mm 3 mps 745 mmHg 44%
    16:00 +30°C° 0 mm 3 mps 745 mmHg 43%
    17:00 +30°C° 0 mm 3 mps 744 mmHg 43%
    18:00 +28°C° 0 mm 3 mps 744 mmHg 48%
    19:00 +26°C° 0 mm 3 mps 744 mmHg 54%
    20:00 +25°C° 0 mm 3 mps 744 mmHg 59%
    21:00 +24°C° 0 mm 3 mps 745 mmHg 63%
    22:00 +22°C° 0 mm 3 mps 745 mmHg 66%
    23:00 +21°C° 0 mm 3 mps 746 mmHg 70%

    Tomorrow, 20 January, Sunday

    Time Temperature Precipitation Wind Pressure Humidity
    00:00 +21°C° 0 mm 3 mps 746 mmHg 74%
    01:00 +20°C° 0 mm 3 mps 745 mmHg 78%
    02:00 +19°C° 0 mm 2 mps 745 mmHg 82%
    03:00 +19°C° 0 mm 2 mps 744 mmHg 85%
    04:00 +19°C° 0 mm 2 mps 744 mmHg 88%
    05:00 +18°C° 0 mm 2 mps 744 mmHg 91%
    06:00 +19°C° 0 mm 2 mps 744 mmHg 86%
    07:00 +21°C° 0 mm 2 mps 744 mmHg 81%
    08:00 +22°C° 0 mm 3 mps 744 mmHg 76%
    09:00 +25°C° 0 mm 3 mps 744 mmHg 69%
    10:00 +27°C° 0 mm 3 mps 744 mmHg 62%
    11:00 +28°C° 0 mm 4 mps 743 mmHg 55%
    12:00 +30°C° 0 mm 4 mps 743 mmHg 52%
    13:00 +32°C° 0 mm 4 mps 742 mmHg 49%
    14:00 +33°C° 0 mm 4 mps 741 mmHg 46%
    15:00 +33°C° 0 mm 4 mps 740 mmHg 46%
    16:00 +33°C° 0 mm 4 mps 740 mmHg 46%
    17:00 +33°C° 0 mm 4 mps 739 mmHg 46%
    18:00 +30°C° 0 mm 4 mps 739 mmHg 51%
    19:00 +28°C° 0 mm 4 mps 739 mmHg 56%
    20:00 +27°C° 0 mm 3 mps 739 mmHg 61%
    21:00 +26°C° 0 mm 4 mps 740 mmHg 65%
    22:00 +25°C° 0 mm 4 mps 740 mmHg 68%
    23:00 +25°C° 0 mm 4 mps 741 mmHg 72%

    Day after tomorrow, 21 January, Monday

    Time Temperature Precipitation Wind Pressure Humidity
    00:00 +23°C° 0 mm 4 mps 741 mmHg 75%
    01:00 +24°C° 0 mm 3 mps 740 mmHg 77%
    02:00 +24°C° 0 mm 3 mps 740 mmHg 79%
    03:00 +23°C° 0 mm 2 mps 740 mmHg 80%
    04:00 +23°C° 0 mm 2 mps 740 mmHg 82%
    05:00 +23°C° 0 mm 1 mps 740 mmHg 83%
    06:00 +24°C° 0 mm 2 mps 740 mmHg 80%
    07:00 +24°C° 0 mm 2 mps 741 mmHg 77%
    08:00 +25°C° 0 mm 3 mps 742 mmHg 74%
    09:00 +27°C° 0 mm 3 mps 742 mmHg 66%
    10:00 +29°C° 0 mm 3 mps 742 mmHg 58%
    11:00 +31°C° 0 mm 3 mps 742 mmHg 50%
    12:00 +33°C° 0 mm 3 mps 742 mmHg 47%
    13:00 +35°C° 0 mm 3 mps 741 mmHg 43%
    14:00 +36°C° 0 mm 4 mps 740 mmHg 39%
    15:00 +36°C° 0 mm 3 mps 740 mmHg 39%
    16:00 +36°C° 0 mm 3 mps 739 mmHg 38%
    17:00 +36°C° 0 mm 3 mps 739 mmHg 38%
    18:00 +35°C° 0 mm 3 mps 739 mmHg 43%
    19:00 +33°C° 0 mm 3 mps 739 mmHg 49%
    20:00 +30°C° 0 mm 3 mps 739 mmHg 54%
    21:00 +29°C° 0 mm 3 mps 740 mmHg 59%
    22:00 +28°C° 0 mm 3 mps 740 mmHg 64%
    23:00 +28°C° 0 mm 3 mps 740 mmHg 68%

    22 January, Tuesday

    Time Temperature Precipitation Wind Pressure Humidity
    00:00 +27°C° 0 mm 3 mps 740 mmHg 70%
    01:00 +27°C° 0 mm 3 mps 739 mmHg 72%
    02:00 +26°C° 0 mm 2 mps 739 mmHg 73%
    03:00 +26°C° 0 mm 2 mps 739 mmHg 74%
    04:00 +25°C° 0 mm 2 mps 738 mmHg 75%
    05:00 +25°C° 0 mm 2 mps 738 mmHg 77%
    06:00 +26°C° 0 mm 2 mps 738 mmHg 71%
    07:00 +28°C° 0 mm 3 mps 738 mmHg 66%
    08:00 +29°C° 0 mm 4 mps 739 mmHg 60%
    09:00 +32°C° 0 mm 4 mps 738 mmHg 55%
    10:00 +34°C° 0 mm 4 mps 738 mmHg 49%
    11:00 +36°C° 0 mm 4 mps 738 mmHg 43%
    12:00 +38°C° 0 mm 4 mps 737 mmHg 40%
    13:00 +40°C° 0 mm 5 mps 737 mmHg 37%
    14:00 +42°C° 0 mm 5 mps 736 mmHg 34%
    15:00 +42°C° 0 mm 5 mps 735 mmHg 33%
    16:00 +43°C° 0 mm 5 mps 735 mmHg 32%
    17:00 +43°C° 0 mm 4 mps 734 mmHg 31%
    18:00 +40°C° 0 mm 3 mps 735 mmHg 35%
    19:00 +38°C° 0 mm 2 mps 735 mmHg 39%
    20:00 +34°C° 0 mm 1 mps 736 mmHg 43%
    21:00 +33°C° 0 mm 1 mps 736 mmHg 47%
    22:00 +33°C° 0 mm 1 mps 737 mmHg 51%
    23:00 +32°C° 0 mm 1 mps 737 mmHg 55%

    23 January, Wednesday

    Time Temperature Precipitation Wind Pressure Humidity
    00:00 +31°C° 0 mm 1 mps 737 mmHg 56%
    01:00 +31°C° 0 mm 2 mps 737 mmHg 58%
    02:00 +30°C° 0 mm 2 mps 736 mmHg 59%
    03:00 +30°C° 0 mm 2 mps 737 mmHg 60%
    04:00 +30°C° 0 mm 2 mps 737 mmHg 61%
    05:00 +30°C° 0 mm 2 mps 737 mmHg 62%
    06:00 +31°C° 0 mm 2 mps 738 mmHg 59%
    07:00 +33°C° 0 mm 3 mps 738 mmHg 57%
    08:00 +35°C° 0 mm 3 mps 739 mmHg 55%
    09:00 +36°C° 0 mm 3 mps 739 mmHg 49%
    10:00 +38°C° 0 mm 3 mps 739 mmHg 44%
    11:00 +40°C° 0 mm 3 mps 739 mmHg 38%
    12:00 +42°C° 0 mm 4 mps 738 mmHg 35%
    13:00 +44°C° 0 mm 4 mps 738 mmHg 32%
    14:00 +45°C° 0 mm 4 mps 737 mmHg 29%
    15:00 +45°C° 0 mm 4 mps 737 mmHg 29%
    16:00 +44°C° 0 mm 4 mps 737 mmHg 29%
    17:00 +44°C° 0 mm 4 mps 736 mmHg 29%
    18:00 +42°C° 0 mm 4 mps 737 mmHg 35%
    19:00 +40°C° 0 mm 5 mps 737 mmHg 40%
    20:00 +37°C° 0 mm 5 mps 737 mmHg 46%
    21:00 +36°C° 0 mm 4 mps 737 mmHg 49%
    22:00 +36°C° 0 mm 3 mps 738 mmHg 53%
    23:00 +35°C° 0 mm 2 mps 738 mmHg 56%

    24 January, Thursday

    Time Temperature Precipitation Wind Pressure Humidity
    00:00 +34°C° 0 mm 2 mps 738 mmHg 58%
    01:00 +32°C° 0 mm 2 mps 737 mmHg 60%
    02:00 +32°C° 0 mm 2 mps 737 mmHg 62%
    03:00 +31°C° 0 mm 2 mps 737 mmHg 63%
    04:00 +31°C° 0 mm 3 mps 737 mmHg 65%
    05:00 +30°C° 0 mm 3 mps 737 mmHg 67%
    06:00 +31°C° 0 mm 3 mps 737 mmHg 65%
    07:00 +33°C° 0 mm 4 mps 737 mmHg 62%
    08:00 +33°C° 0 mm 4 mps 738 mmHg 60%
    09:00 +35°C° 0 mm 4 mps 737 mmHg 54%
    10:00 +37°C° 0 mm 4 mps 737 mmHg 47%
    11:00 +40°C° 0 mm 5 mps 737 mmHg 41%
    12:00 +42°C° 0 mm 6 mps 736 mmHg 36%
    13:00 +44°C° 0 mm 7 mps 735 mmHg 32%
    14:00 +46°C° 0 mm 7 mps 734 mmHg 27%
    15:00 +46°C° 0 mm 7 mps 734 mmHg 27%
    16:00 +46°C° 0 mm 6 mps 733 mmHg 27%
    17:00 +46°C° 0 mm 5 mps 733 mmHg 26%
    18:00 +43°C° 0 mm 5 mps 733 mmHg 28%
    19:00 +41°C° 0 mm 5 mps 733 mmHg 30%
    20:00 +40°C° 0 mm 5 mps 733 mmHg 31%
    21:00 +39°C° 0 mm 5 mps 733 mmHg 31%
    22:00 +39°C° 0 mm 5 mps 733 mmHg 30%
    23:00 +37°C° 0 mm 5 mps 734 mmHg 30%
    Show more